Find OneWeb SL0067

NORAD ID: 45425 Int'l Des: 2020-020 Owner: ONEWEB Country: UK Constellation: oneweb operational
LEOCIRCULARPOLARONEWEB_TYPE

現在のビュー

3D地球を読み込み中...

About OneWeb SL0067

OneWeb SL0067 (NORAD 45425) is a oneweb constellation satellite launched Mar 21, 2020 by ONEWEB of UK. It operates in LEO, CIRCULAR, POLAR, ONEWEB_TYPE orbit with a mass of 148.00 kg.

OneWeb SL0067について

説明を読み込み中...

次回通過

Passes for default location (London). Set your location on the main map for personalized predictions.

高度履歴

Loading altitude history...

軌道要素

1 45425U 20020B 26170.62605717 -.00000105 00000-0 -33138-3 0 9993
2 45425 87.8905 20.5079 0001948 82.2759 277.8590 13.11426161303052
Epoch: Jun 19, 2026 • Age: 15 hours

現在のステータス

高度 1226.7 km
速度 7.25 km/s
衛星直下点 59.47°N, 165.96°W
打ち上げ日 Mar 21, 2020
運用期間 6.2 years
タイプ internet

技術仕様

分類 Payload
質量 148.00 kg
乾燥質量 140.00 kg
総質量 148.00 kg
長さ 1.30 m
直径 1.00 m
スパン 5.00 m
形状 Trapezoid+2 pan
製造者 ONEWUS
バスタイプ ARROW
フェーズステータス In Orbit
所有者/国 ONEWEB/UK

Most Searched